| ตารางข้อมูล | TH20402 | TH4529A | TH4529D | TH814 | ค้นข้อมูล1 | ค้นข้อมูล2 | ค่าสูงสุด-ต่ำสุด |  

Select Sensor -->| 20402 | 4529A | 4529D | 814 | 824 | 834 | 844 | หน้าจอย่อ | 4529 |
Data of room  844

IDRoomDate  Temp  Humidity
 71703  844  2021-11-26 21:23:18  26.8  65.5 
 71698  844  2021-11-26 21:13:16  26.8  67.1 
 71696  844  2021-11-26 21:03:13  26.8  67.1 
 71691  844  2021-11-26 20:53:08  27.1  69.0 
 71689  844  2021-11-26 20:43:06  27.1  71.6 
 71684  844  2021-11-26 20:33:03  27.3  73.2 
 71682  844  2021-11-26 20:23:01  27.9  74.2 
 71677  844  2021-11-26 20:12:59  28.1  75.7 
 71675  844  2021-11-26 20:02:55  28.0  75.4 
 71670  844  2021-11-26 19:52:52  28.2  74.2 
 71668  844  2021-11-26 19:42:50  28.1  73.4 
 71663  844  2021-11-26 19:32:47  27.9  71.8 
 71661  844  2021-11-26 19:22:45  27.9  71.9 
 71656  844  2021-11-26 19:12:40  27.1  68.6 
 71654  844  2021-11-26 19:02:38  27.2  70.4 
 71649  844  2021-11-26 18:52:35  27.3  71.0 
 71647  844  2021-11-26 18:42:33  27.3  73.2 
 71642  844  2021-11-26 18:32:30  27.5  75.5 
 71640  844  2021-11-26 18:22:27  27.5  75.5 
 71635  844  2021-11-26 18:12:22  28.3  80.2 
 71633  844  2021-11-26 18:02:19  29.3  79.3 
 71628  844  2021-11-26 17:52:15  29.4  79.2 
 71626  844  2021-11-26 17:42:13  29.5  79.1 
 71621  844  2021-11-26 17:32:10  29.3  79.9 
 71619  844  2021-11-26 17:22:07  29.6  79.0 
 71614  844  2021-11-26 17:12:04  29.5  79.2 
 71612  844  2021-11-26 17:02:00  29.5  79.2 
 71607  844  2021-11-26 16:51:55  29.3  79.8 
 71605  844  2021-11-26 16:41:53  29.1  79.9 
 71600  844  2021-11-26 16:31:50  29.2  79.5 
 71598  844  2021-11-26 16:21:48  29.3  78.6 
 71593  844  2021-11-26 16:11:45  29.1  78.6 
 71591  844  2021-11-26 16:01:41  29.1  78.1 
 71586  844  2021-11-26 15:51:38  29.0  78.1 
 71584  844  2021-11-26 15:41:35  29.3  77.6 
 71579  844  2021-11-26 15:31:33  29.3  77.6 
 71577  844  2021-11-26 15:21:31  29.1  78.4 
 71572  844  2021-11-26 15:11:28  28.9  78.1 
 71570  844  2021-11-26 15:01:26  29.1  77.2 
 71565  844  2021-11-26 14:51:23  29.3  75.7 
 71563  844  2021-11-26 14:41:20  30.7  70.9 
 71558  844  2021-11-26 14:31:17  30.6  70.9 
 71556  844  2021-11-26 14:21:12  30.7  71.2 
 71553  844  2021-11-26 14:11:10  30.6  71.2 
 71551  844  2021-11-26 14:01:05  30.8  71.2 
 71548  844  2021-11-26 13:51:03  30.7  71.1 
 71546  844  2021-11-26 13:41:00  31.9  67.6 
 71543  844  2021-11-26 13:30:58  30.3  72.3 
 71541  844  2021-11-26 13:20:56  30.3  72.0 
 71536  844  2021-11-26 13:10:53  30.3  71.5 
 71534  844  2021-11-26 13:00:51  30.3  71.4 
 71529  844  2021-11-26 12:50:48  31.2  68.4 
 71527  844  2021-11-26 12:40:46  31.0  67.7 
 71522  844  2021-11-26 12:30:43  31.1  67.1 
 71520  844  2021-11-26 12:20:39  31.3  65.7 
 71515  844  2021-11-26 12:10:37  31.3  65.3 
 71513  844  2021-11-26 12:00:35  31.2  66.0 
 71508  844  2021-11-26 11:50:32  31.2  65.9 
 71506  844  2021-11-26 11:40:30  31.2  65.8 
 71501  844  2021-11-26 11:30:27  31.3  65.5 
 71499  844  2021-11-26 11:20:24  31.1  66.0 
 71494  844  2021-11-26 11:10:22  31.2  65.4 
 71492  844  2021-11-26 11:00:19  31.1  65.9 
 71487  844  2021-11-26 10:50:17  31.1  66.0 
 71485  844  2021-11-26 10:40:14  30.9  66.5 
 71480  844  2021-11-26 10:30:12  30.9  66.5 
 71478  844  2021-11-26 10:20:09  30.7  67.1 
 71473  844  2021-11-26 10:10:07  30.7  67.1 
 71471  844  2021-11-26 10:00:02  30.8  66.5 
 71466  844  2021-11-26 09:50:00  30.9  65.9 
 71464  844  2021-11-26 09:39:57  30.7  66.3 
 71459  844  2021-11-26 09:29:55  30.8  65.8 

Data every 20 minute.


Data of room  844


Data every 20 minute.

  Show Graph